Hourly Data Report for December 02, 2019

All times are specified in Local Standard Time (LST). Add 1 hour to adjust for Daylight Saving Time where and when it is observed.

SATURNA ISLAND CS
BRITISH COLUMBIA
Current Station Operator: ECCC - MSC

48°47'02.067" N
123°02'41.082" W
24.40 m
1017101
71473
WEZ

Download Data

Hourly Data (December 2019)
Hourly Data Report for December 2, 2019
TIME Temp Definition
°C
Dew Point Definition
°C
Rel Hum Definition
%
Wind Dir Definition
10's deg

Wind Spd Definition
km/h
Visibility Definition
km
Stn Press Definition
kPa
Hmdx Definition


Wind Chill Definition


Weather Definition


00:00 4.0 1.4 83 3 11   101.51     LegendNANA
01:00 4.1 1.7 85 6 12   101.55     LegendNANA
02:00 4.0 2.3 89 7 13   101.56     LegendNANA
03:00 4.0 2.7 91 5 15   101.61     LegendNANA
04:00 4.1 2.8 91 5 10   101.64     LegendNANA
05:00 4.1 3.0 92 2 13   101.66     LegendNANA
06:00 3.9 3.0 93 3 10   101.67     LegendNANA
07:00 4.1 3.3 94 5 11   101.66     LegendNANA
08:00 4.1 3.3 95 5 8   101.69     LegendNANA
09:00 4.3 3.4 94 4 8   101.74     LegendNANA
10:00 4.9 3.6 91 2 7   101.77     LegendNANA
11:00 4.9 3.5 90 1 9   101.80     LegendNANA
12:00 5.3 3.7 89 2 11   101.80     LegendNANA
13:00 5.3 3.8 90 4 11   101.77     LegendNANA
14:00 5.5 3.9 90 4 9   101.72     LegendNANA
15:00 5.5 4.1 91 3 8   101.74     LegendNANA
16:00 5.4 4.2 92 3 6   101.76     LegendNANA
17:00 5.4 4.3 92 5 5   101.77     LegendNANA
18:00 5.6 4.4 92 7 5   101.77     LegendNANA
19:00 5.5 4.6 94 13 10   101.75     LegendNANA
20:00 5.7 5.0 95 13 10   101.75     LegendNANA
21:00 5.9 5.2 96 14 5   101.76     LegendNANA
22:00 6.0 5.4 96 13 8   101.75     LegendNANA
23:00 6.1 5.6 96 12 6   101.75     LegendNANA

Notes on Data Quality.

Legend

  • E = Estimated
  • M = Missing
  • NA = Not Available
Date modified: